Regional Weather Roundup
Issued by NWS Little Rock, AR

Home | Current Version | Previous Version | Graphics & Text | Print | Product List | Glossary On
Versions: 1 2 3 4 5 6 7 8 9 10 11 12 13 14 15 16 17 18 19 20 21 22 23 24 25 26 27 28 29 30 31 32 33 34 35 36 37 38 39 40 41 42 43 44 45 46 47 48 49 50
000
ASUS44 KLZK 240605
RWRLZK

WEATHER ROUNDUP FOR ARKANSAS
NATIONAL WEATHER SERVICE LITTLE ROCK AR
100 AM CDT SUN MAY 24 2015

NOTE: "FAIR" INDICATES FEW OR NO CLOUDS BELOW 12,000 FEET WITH NO
SIGNIFICANT WEATHER AND/OR OBSTRUCTIONS TO VISIBILITY.

ARZ001-003-010-029-240700-
NORTHWEST ARKANSAS

CITY           SKY/WX    TMP DP  RH WIND       PRES   REMARKS
FAYETTEVILLE   LGT RAIN  70  65  84 SE17G28   29.98F
6HR MIN TEMP:  70; 6HR MAX TEMP:  72; 6HR PCP:  0.02;

FORT SMITH     CLOUDY    72  66  81 SE5       29.98F
6HR MIN TEMP:  72; 6HR MAX TEMP:  75; 6HR PCP: TRACE;

HARRISON       CLOUDY    67  60  78 SE10      30.05F
6HR MIN TEMP:  66; 6HR MAX TEMP:  71;

BENTONVILLE    CLOUDY   N/A N/A N/A S18G24    29.98F
                                      6HR PCP:  0.12;

ROGERS         LGT RAIN  70  64  81 SE15G23   29.99F
6HR MIN TEMP:  68; 6HR MAX TEMP:  71; 6HR PCP: TRACE;

SILOAM SPGS    CLOUDY    68  61  77 SE14G25   29.97F
6HR MIN TEMP:  66; 6HR MAX TEMP:  70; 6HR PCP:  0.21;

HIGHFILL       LGT RAIN  69  65  86 SE21      29.97F
6HR MIN TEMP:  69; 6HR MAX TEMP:  71; 6HR PCP:  0.13;

$$

ARZ004-005-016-240700-
NORTH CENTRAL ARKANSAS

CITY           SKY/WX    TMP DP  RH WIND       PRES   REMARKS
BATESVILLE     CLOUDY    70  57  64 E6        30.09S
6HR MIN TEMP:  70; 6HR MAX TEMP:  77;

FLIPPIN        CLOUDY    66  57  72 E5        30.05F
6HR MIN TEMP:  66; 6HR MAX TEMP:  73;

MTN HOME       CLOUDY    67  57  70 SE9       30.06F
6HR MIN TEMP:  67; 6HR MAX TEMP:  73;

$$

ARZ040-041-240700-
WEST CENTRAL ARKANSAS

CITY           SKY/WX    TMP DP  RH WIND       PRES   REMARKS
MENA           MOCLDY    75  70  83 S12G20    30.03S
MOUNT IDA      CLOUDY    76  66  71 S9G25     30.01F
6HR MIN TEMP:  74; 6HR MAX TEMP:  79; 6HR PCP: TRACE;

$$

ARZ009-017-025-026-028-240700-
NORTHEAST ARKANSAS

CITY           SKY/WX    TMP DP  RH WIND       PRES   REMARKS
CORNING          N/A     66  61  82 SE6       30.11F
JONESBORO      MOCLDY    68  60  75 SE5       30.10S
6HR MIN TEMP:  65; 6HR MAX TEMP:  77;

NEWPORT        MOCLDY    70  61  73 SE7       30.10S
6HR MIN TEMP:  70; 6HR MAX TEMP:  78;

WALNUT RIDGE   CLOUDY    68  57  68 SE8       30.10S
6HR MIN TEMP:  68; 6HR MAX TEMP:  77;

BLYTHEVILLE    PTCLDY    70  60  70 SE9       30.12S
6HR MIN TEMP:  67; 6HR MAX TEMP:  79;

$$

ARZ022-023-033-042-044-240700-
CENTRAL ARKANSAS

CITY           SKY/WX    TMP DP  RH WIND       PRES   REMARKS
LITTLE ROCK    MOCLDY    72  63  73 E5        30.06S
6HR MIN TEMP:  72; 6HR MAX TEMP:  79;

N LITTLE ROCK    N/A     72  67  84 SE7       30.06S
6HR MIN TEMP:  71; 6HR MAX TEMP:  78;

SEARCY         MOCLDY    69  62  78 E3        30.09S
6HR MIN TEMP:  67; 6HR MAX TEMP:  77;

HOT SPRINGS    MOCLDY    74  65  73 SE7       30.05F
6HR MIN TEMP:  73; 6HR MAX TEMP:  80;

RUSSELLVILLE   CLOUDY    71  64  78 VRB6      30.04F
6HR MIN TEMP:  71; 6HR MAX TEMP:  77;

CLINTON        FAIR      63  63 100 CALM      30.09F FOG
$$

ARZ036-240700-
EAST ARKANSAS

CITY           SKY/WX    TMP DP  RH WIND       PRES   REMARKS
WEST MEMPHIS   PTCLDY    69  60  73 S9        30.10S
6HR MIN TEMP:  69; 6HR MAX TEMP:  79;

$$

ARZ050-053-066-070-073-240700-
SOUTHWEST ARKANSAS

CITY           SKY/WX    TMP DP  RH WIND       PRES   REMARKS
ARKADELPHIA    FAIR      72  71  96 VRB3      30.05S
6HR MIN TEMP:  72; 6HR MAX TEMP:  82;

CAMDEN         CLOUDY    73  66  78 NE7       30.05F
TEXARKANA      CLOUDY    74  70  87 S8        30.02F
6HR MIN TEMP:  74; 6HR MAX TEMP:  80;

EL DORADO      MOCLDY    74  68  81 SE8       30.06S
6HR MIN TEMP:  74; 6HR MAX TEMP:  80;

DE QUEEN       MOCLDY    75  69  81 SE6       29.98F
6HR MIN TEMP:  74; 6HR MAX TEMP:  78;

$$

ARZ056-057-069-240700-
SOUTHEAST ARKANSAS

CITY           SKY/WX    TMP DP  RH WIND       PRES   REMARKS
PINE BLUFF     PTCLDY    71  66  84 SE7       30.07S
6HR MIN TEMP:  70; 6HR MAX TEMP:  81;

STUTTGART      PTCLDY    72  63  73 MISG      30.08S
6HR MIN TEMP:  72; 6HR MAX TEMP:  81;

MONTICELLO     MOCLDY    73  67  81 SE3       30.08R
6HR MIN TEMP:  73; 6HR MAX TEMP:  83;


$$




USA.gov is the U.S. government's official web portal to all federal, state and local government web resources and services.